sat.trackr.live / text

‹ back to catalog

STARLINK-4584

NORAD 53571 · 2022-101AW

PAYLOAD ACTIVE UNKNOWN

§ Identity

Operator
Country
US
Launch date
2022-08-19
Launch site
AFETR
Launch vehicle
Mass (kg)
RCS (m²)

Purposes: comms

External: N2YO · Heavens-Above · Gunter

§ Orbital elements

Epoch: 2026-05-25T02:46:36.537024Z

Period
95.44 min
Inclination
53.2128°
Eccentricity
0.0001222
Mean motion
15.08841539 rev/d
Perigee alt
538.9 km
Apogee alt
540.6 km
Semi-major
6,917.9 km
B*
2.1184e-5
RAAN
70.9763°
Arg perigee
65.1193°
Mean anomaly
294.9925°
Rev number
20,867

§ Raw data

STARLINK-45841 53571U 22101AW  26145.11570066  .00000049  00000+0  21184-4 0  99932 53571  53.2128  70.9763 0001222  65.1193 294.9925 15.08841539208675

JSON: /api/v1/satellites/53571 · /tle

For live sub-satellite position, see the globe view (requires WebGL).

§ Visibility from observer

Set your observer location to see the next 7 days of passes ≥ 10°. The values pass through the URL so the page stays shareable.

No JS? Fill the form by hand. The geolocation button needs JavaScript.